ProjectID,Date,Electric Generation,Electric Utility Import,Facility Electric Load
,YYYY-MM-DD,kW,kW,kW
275,2015-10-15,15.473333333333334,25.8575,41.33083333333334
275,2015-10-16,24.487499999999997,19.23125,43.71875
275,2015-10-17,31.682083333333324,18.64708333333333,50.32916666666665
275,2015-10-18,31.062083333333344,18.367083333333333,49.429166666666674
275,2015-10-19,28.432083333333324,17.389166666666664,45.82124999999999
275,2015-10-20,26.54375,17.100833333333334,43.64458333333333
275,2015-10-21,26.929999999999993,17.85875,44.78874999999999
275,2015-10-22,25.48416666666667,17.855,43.33916666666667
275,2015-10-23,26.695416666666663,18.825416666666666,45.52083333333333
275,2015-10-24,28.909166666666668,17.28375,46.19291666666667
275,2015-10-25,28.115000000000006,18.366666666666667,46.48166666666667
275,2015-10-26,28.67125,16.977083333333333,45.64833333333333
275,2015-10-27,27.060833333333335,17.0275,44.08833333333334
275,2015-10-28,29.759999999999994,18.3775,48.137499999999996
275,2015-10-29,27.834999999999997,18.40041666666667,46.235416666666666
275,2015-10-30,26.09041666666667,17.635416666666668,43.72583333333334
275,2015-10-31,29.501250000000002,17.927916666666665,47.42916666666667
275,2015-11-01,31.304166666666664,18.466666666666665,49.77083333333333
275,2015-11-02,28.482083333333335,18.317083333333333,46.799166666666665
275,2015-11-03,29.62333333333333,17.95,47.57333333333333
275,2015-11-04,31.68499999999999,17.70625,49.39124999999999
275,2015-11-05,32.35541666666666,19.11,51.46541666666666
275,2015-11-06,32.277499999999996,19.405,51.6825
275,2015-11-07,9.178749999999999,31.95375,41.1325
275,2015-11-08,-1.425,37.22541666666667,35.80041666666667
275,2015-11-09,-0.4737499999999999,35.0225,34.54875
275,2015-11-10,0.0,36.54833333333333,36.54833333333333
275,2015-11-11,0.0,37.339166666666664,37.339166666666664
275,2015-11-12,0.0,36.80291666666667,36.80291666666667
275,2015-11-13,0.0,36.240833333333335,36.240833333333335
275,2015-11-14,0.0,36.291666666666664,36.291666666666664
275,2015-11-15,0.0,35.987500000000004,35.987500000000004
275,2015-11-16,0.0,34.755833333333335,34.755833333333335
275,2015-11-17,0.0,34.73583333333333,34.73583333333333
275,2015-11-18,0.0,34.98375,34.98375
275,2015-11-19,0.0,37.35583333333333,37.35583333333333
275,2015-11-20,15.923333333333334,27.600416666666664,43.52375
275,2015-11-21,27.265833333333337,19.120416666666667,46.386250000000004
275,2015-11-22,29.401250000000005,19.80333333333333,49.20458333333333
275,2015-11-23,26.12166666666667,19.366666666666667,45.48833333333334
275,2015-11-24,25.591666666666665,19.472083333333334,45.06375
275,2015-11-25,28.669583333333335,19.55333333333333,48.22291666666666
275,2015-11-26,31.329166666666666,20.30125,51.63041666666666
275,2015-11-27,24.829583333333332,19.545833333333334,44.375416666666666
275,2015-11-28,28.458333333333332,20.080416666666668,48.53875
275,2015-11-29,28.139166666666664,19.475416666666668,47.61458333333333
275,2015-11-30,26.071249999999996,18.982499999999998,45.053749999999994
275,2015-12-01,25.582916666666662,19.423750000000002,45.00666666666666
275,2015-12-02,25.244583333333335,19.7775,45.022083333333335
275,2015-12-03,24.929583333333337,19.243333333333332,44.172916666666666
275,2015-12-04,26.16541666666667,19.67125,45.83666666666667
275,2015-12-05,26.97791666666667,18.767500000000002,45.74541666666667
275,2015-12-06,30.297500000000003,19.091666666666665,49.38916666666667
275,2015-12-07,28.09625,18.397916666666667,46.49416666666667
275,2015-12-08,28.592500000000005,18.562083333333334,47.154583333333335
275,2015-12-09,27.3775,19.232916666666664,46.610416666666666
275,2015-12-10,27.437916666666666,18.850416666666668,46.288333333333334
275,2015-12-11,25.86333333333333,19.978333333333335,45.84166666666667
275,2015-12-12,29.089166666666667,19.965,49.05416666666667
275,2015-12-13,31.457499999999996,20.09541666666667,51.55291666666666
275,2015-12-14,27.171666666666667,19.14875,46.32041666666667
275,2015-12-15,25.978333333333335,19.850833333333334,45.829166666666666
275,2015-12-16,27.576666666666664,19.92875,47.50541666666666
275,2015-12-17,27.629166666666663,20.347083333333334,47.97624999999999
275,2015-12-18,27.154583333333335,20.763749999999998,47.91833333333334
275,2015-12-19,32.00041666666666,20.756666666666668,52.75708333333333
275,2015-12-20,30.413749999999993,20.378333333333334,50.79208333333332
275,2015-12-21,29.405,19.409166666666668,48.814166666666665
275,2015-12-22,30.421249999999997,19.309583333333332,49.73083333333333
275,2015-12-23,29.59541666666667,20.00375,49.59916666666667
275,2015-12-24,31.84625,22.40625,54.2525
275,2015-12-25,34.56499999999999,22.345,56.90999999999999
275,2015-12-26,31.30208333333333,20.637916666666666,51.94
275,2015-12-27,30.50458333333333,20.934166666666666,51.43875
275,2015-12-28,28.56625,19.854166666666668,48.42041666666667
275,2015-12-29,29.805416666666662,20.072916666666668,49.87833333333333
275,2015-12-30,21.55999999999999,24.685000000000002,46.24499999999999
275,2015-12-31,15.903333333333334,29.737083333333334,45.64041666666667
275,2016-01-01,27.77458333333333,25.025833333333335,52.80041666666666
275,2016-01-02,37.29916666666666,23.894583333333333,61.193749999999994
275,2016-01-03,31.793333333333337,20.16208333333333,51.955416666666665
275,2016-01-04,29.092500000000005,21.15625,50.24875
275,2016-01-05,32.352916666666665,19.97041666666667,52.32333333333334
275,2016-01-06,27.560416666666665,20.377916666666668,47.93833333333333
275,2016-01-07,28.123333333333346,19.21625,47.339583333333344
275,2016-01-08,25.31416666666667,19.282083333333333,44.59625
275,2016-01-09,26.045833333333324,19.450833333333332,45.496666666666655
275,2016-01-10,26.70833333333334,19.247083333333332,45.95541666666667
275,2016-01-11,26.629166666666666,20.610416666666666,47.23958333333333
275,2016-01-12,28.7075,19.51,48.2175
275,2016-01-13,28.79125,22.262916666666666,51.05416666666667
275,2016-01-14,30.68416666666667,20.692083333333333,51.37625
275,2016-01-15,28.112083333333334,19.013749999999998,47.12583333333333
275,2016-01-16,28.391666666666662,19.590833333333332,47.982499999999995
275,2016-01-17,27.466250000000002,19.653333333333332,47.11958333333334
275,2016-01-18,29.83541666666666,23.02541666666667,52.86083333333333
275,2016-01-19,31.192916666666665,25.456666666666667,56.64958333333333
275,2016-01-20,28.36125,22.002916666666668,50.36416666666666
275,2016-01-21,24.862083333333334,21.64,46.50208333333333
275,2016-01-22,28.272499999999997,19.16208333333333,47.43458333333333
275,2016-01-23,30.637500000000003,18.993333333333332,49.630833333333335
275,2016-01-24,27.392916666666675,20.13416666666667,47.527083333333344
275,2016-01-25,24.432916666666667,19.864583333333332,44.2975
275,2016-01-26,24.90791666666667,19.5925,44.500416666666666
275,2016-01-27,24.017916666666665,19.886666666666667,43.904583333333335
275,2016-01-28,22.94583333333333,20.362083333333334,43.307916666666664
275,2016-01-29,25.682499999999994,20.254583333333333,45.93708333333333
275,2016-01-30,27.55083333333333,20.205416666666668,47.756249999999994
275,2016-01-31,25.09125,20.84208333333333,45.93333333333333
275,2016-02-01,24.0525,20.109166666666667,44.16166666666666
275,2016-02-02,24.98041666666667,20.669166666666666,45.64958333333334
275,2016-02-03,23.85875,20.115416666666665,43.97416666666666
275,2016-02-04,22.657083333333333,20.78708333333333,43.44416666666666
275,2016-02-05,25.257083333333338,20.51875,45.77583333333334
275,2016-02-06,27.105,19.710416666666667,46.815416666666664
275,2016-02-07,27.12708333333333,20.32375,47.450833333333335
275,2016-02-08,25.67458333333333,20.51875,46.19333333333333
275,2016-02-09,24.007499999999997,19.92833333333333,43.93583333333333
275,2016-02-10,24.263333333333332,20.25916666666667,44.5225
275,2016-02-11,28.16,22.122500000000002,50.2825
275,2016-02-12,28.443749999999994,20.573333333333334,49.01708333333333
275,2016-02-13,32.60208333333333,23.85291666666667,56.455
275,2016-02-14,36.82375000000001,25.1525,61.97625000000001
275,2016-02-15,28.679583333333337,23.330833333333334,52.01041666666667
275,2016-02-16,26.012083333333333,21.357083333333335,47.36916666666667
275,2016-02-17,25.90958333333333,20.86583333333333,46.77541666666666
275,2016-02-18,29.22125000000001,19.555,48.776250000000005
275,2016-02-19,29.545416666666664,19.038333333333334,48.583749999999995
275,2016-02-20,27.35208333333333,19.867083333333333,47.219166666666666
275,2016-02-21,26.505416666666672,21.050833333333333,47.556250000000006
275,2016-02-22,24.415000000000003,20.161666666666665,44.57666666666667
275,2016-02-23,23.506249999999998,20.184583333333332,43.69083333333333
275,2016-02-24,24.265833333333337,20.931250000000002,45.19708333333334
275,2016-02-25,24.74875,21.666666666666668,46.41541666666667
275,2016-02-26,25.420416666666664,21.394583333333333,46.815
275,2016-02-27,28.545833333333334,20.242083333333333,48.78791666666667
275,2016-02-28,26.345833333333328,20.639166666666664,46.98499999999999
275,2016-02-29,23.711250000000007,20.099166666666665,43.81041666666667
275,2016-03-01,23.801250000000007,20.457083333333333,44.25833333333334
275,2016-03-02,24.656250000000004,20.486666666666668,45.14291666666667
275,2016-03-03,28.14208333333333,21.37375,49.51583333333333
275,2016-03-04,24.74625,20.46875,45.215
275,2016-03-05,26.450833333333332,20.702083333333334,47.15291666666667
275,2016-03-06,25.383333333333336,21.202916666666667,46.58625000000001
275,2016-03-07,24.42125,19.72791666666667,44.14916666666667
275,2016-03-08,23.860000000000003,20.28125,44.14125
275,2016-03-09,23.34125,20.351666666666667,43.69291666666666
275,2016-03-10,22.49291666666667,21.64833333333333,44.14125
275,2016-03-11,23.590416666666666,21.36583333333333,44.95625
275,2016-03-12,24.70458333333333,19.987083333333334,44.69166666666666
275,2016-03-13,22.793333333333333,20.91125,43.70458333333333
275,2016-03-14,24.33875,19.59,43.92875
275,2016-03-15,23.40625,19.549583333333334,42.95583333333333
275,2016-03-16,21.52333333333333,20.523333333333333,42.04666666666667
275,2016-03-17,23.389583333333334,19.924583333333334,43.314166666666665
275,2016-03-18,24.19875,20.53375,44.7325
275,2016-03-19,26.80208333333334,19.952916666666667,46.75500000000001
275,2016-03-20,26.037500000000005,19.661666666666665,45.69916666666667
275,2016-03-21,25.672916666666666,20.179583333333333,45.8525
275,2016-03-22,28.06375,19.416666666666668,47.48041666666667
275,2016-03-23,23.460000000000004,20.170833333333334,43.63083333333334
275,2016-03-24,23.31416666666667,19.8175,43.13166666666667
275,2016-03-25,24.334166666666665,20.455833333333334,44.79
275,2016-03-26,24.03708333333334,19.914166666666667,43.95125
275,2016-03-27,25.783749999999994,20.667916666666667,46.45166666666666
275,2016-03-28,22.334166666666672,20.56375,42.897916666666674
275,2016-03-29,22.59875,20.963333333333335,43.562083333333334
275,2016-03-30,21.544166666666666,20.09125,41.635416666666664
275,2016-03-31,20.537916666666664,20.86583333333333,41.403749999999995
275,2016-04-01,23.012083333333333,22.33458333333333,45.346666666666664
275,2016-04-02,26.51291666666666,20.18,46.69291666666666
275,2016-04-03,28.412916666666664,21.2575,49.67041666666667
275,2016-04-04,24.990833333333338,19.447916666666668,44.438750000000006
275,2016-04-05,23.292500000000004,19.474166666666665,42.766666666666666
275,2016-04-06,22.21041666666667,20.4075,42.61791666666667
275,2016-04-07,11.434166666666668,28.235833333333332,39.67
275,2016-04-08,11.211250000000001,27.70958333333333,38.920833333333334
275,2016-04-09,22.552916666666665,20.69,43.242916666666666
275,2016-04-10,29.61916666666666,19.21625,48.83541666666666
275,2016-04-11,2.4320833333333334,33.80958333333333,36.24166666666666
275,2016-04-12,13.261249999999997,26.41541666666667,39.67666666666666
275,2016-04-13,22.110833333333332,19.677083333333332,41.78791666666666
275,2016-04-14,21.69,20.495,42.185
275,2016-04-15,20.965833333333332,20.262916666666666,41.22875
275,2016-04-16,23.261666666666667,19.792916666666667,43.05458333333333
275,2016-04-17,5.23375,32.24208333333333,37.475833333333334
275,2016-04-18,-0.33875000000000005,36.47666666666667,36.13791666666667
275,2016-04-19,0.0,36.11208333333334,36.11208333333334
275,2016-04-20,8.700416666666667,29.689999999999998,38.39041666666667
275,2016-04-21,19.290833333333335,23.0,42.29083333333334
275,2016-04-22,23.009583333333328,26.185000000000002,49.19458333333333
275,2016-04-23,30.644999999999996,24.091250000000002,54.73625
275,2016-04-24,24.40166666666667,22.88416666666667,47.28583333333334
275,2016-04-25,23.076666666666668,22.4375,45.51416666666667
275,2016-04-26,14.32,27.8125,42.1325
275,2016-04-27,21.07916666666667,21.885416666666668,42.96458333333334
275,2016-04-28,20.808333333333337,21.760416666666668,42.56875000000001
275,2016-04-29,20.693750000000005,22.0325,42.72625000000001
275,2016-04-30,23.799166666666668,21.580416666666665,45.37958333333333
275,2016-05-01,25.925,21.480833333333333,47.405833333333334
275,2016-05-02,21.605416666666667,21.538749999999997,43.14416666666666
275,2016-05-03,22.981666666666666,22.420833333333334,45.4025
275,2016-05-04,22.597500000000007,21.38,43.977500000000006
275,2016-05-05,18.48,23.349166666666665,41.829166666666666
275,2016-05-06,24.16541666666667,20.81375,44.97916666666667
275,2016-05-07,25.824583333333337,21.671666666666667,47.49625
275,2016-05-08,23.375416666666666,21.975416666666664,45.35083333333333
275,2016-05-09,21.09,22.457083333333333,43.54708333333333
275,2016-05-10,21.483333333333338,22.144583333333333,43.62791666666667
275,2016-05-11,21.84833333333333,22.618333333333336,44.46666666666667
275,2016-05-12,18.79958333333333,26.872500000000002,45.67208333333333
275,2016-05-13,27.871250000000003,23.24208333333333,51.11333333333333
275,2016-05-14,28.162500000000005,23.0925,51.25500000000001
275,2016-05-15,26.772916666666664,22.37125,49.14416666666666
275,2016-05-16,22.39375,21.34875,43.7425
275,2016-05-17,22.60666666666667,22.15625,44.76291666666667
275,2016-05-18,21.974999999999998,23.036666666666665,45.01166666666666
275,2016-05-19,22.505416666666665,22.90625,45.41166666666666
275,2016-05-20,23.382916666666663,23.767916666666665,47.150833333333324
275,2016-05-21,28.527083333333337,23.140833333333333,51.66791666666667
275,2016-05-22,25.342083333333335,25.06125,50.403333333333336
275,2016-05-23,24.06083333333333,25.788749999999997,49.84958333333333
275,2016-05-24,24.29125,27.224166666666665,51.51541666666667
275,2016-05-25,25.145416666666662,32.885416666666664,58.03083333333333
275,2016-05-26,26.36958333333334,44.885416666666664,71.255
275,2016-05-27,24.997916666666665,51.3425,76.34041666666667
275,2016-05-28,25.1125,62.73541666666667,87.84791666666668
275,2016-05-29,25.08750000000001,62.3425,87.43
275,2016-05-30,25.132500000000004,59.75791666666667,84.89041666666667
275,2016-05-31,25.101249999999997,58.557500000000005,83.65875
275,2016-06-01,27.482083333333346,53.114583333333336,80.59666666666668
275,2016-06-02,17.17375,48.95291666666666,66.12666666666667
275,2016-06-03,9.552083333333334,43.95458333333334,53.506666666666675
275,2016-06-04,26.060833333333335,44.7525,70.81333333333333
275,2016-06-05,26.349999999999998,40.33708333333333,66.68708333333333
275,2016-06-06,26.764166666666657,41.233333333333334,67.99749999999999
275,2016-06-07,26.460416666666674,43.58208333333334,70.04250000000002
275,2016-06-08,28.71083333333334,26.119583333333335,54.83041666666668
275,2016-06-09,23.85666666666666,22.555833333333336,46.412499999999994
275,2016-06-10,23.66208333333333,25.00791666666667,48.67
275,2016-06-11,26.375833333333333,34.345,60.72083333333333
275,2016-06-12,26.43583333333334,45.20708333333334,71.64291666666668
275,2016-06-13,25.760833333333323,28.00916666666667,53.769999999999996
275,2016-06-14,25.043333333333333,29.002499999999998,54.045833333333334
275,2016-06-15,26.52625,37.83875,64.365
275,2016-06-16,26.76375,44.083333333333336,70.84708333333333
275,2016-06-17,26.563333333333343,41.23416666666667,67.79750000000001
275,2016-06-18,26.44708333333334,43.22666666666667,69.67375000000001
275,2016-06-19,26.668333333333333,50.276250000000005,76.94458333333334
275,2016-06-20,26.55416666666667,48.7875,75.34166666666667
275,2016-06-21,26.546666666666663,53.86708333333333,80.41375
275,2016-06-22,26.346249999999998,49.35166666666667,75.69791666666666
275,2016-06-23,26.487916666666667,46.50125,72.98916666666666
275,2016-06-24,21.26708333333333,52.93625,74.20333333333333
275,2016-06-25,21.123333333333335,51.41916666666666,72.54249999999999
275,2016-06-26,26.60166666666667,53.69958333333333,80.30125
275,2016-06-27,26.550833333333333,51.56875,78.11958333333334
275,2016-06-28,26.10416666666667,51.17458333333334,77.27875
275,2016-06-29,26.497083333333332,52.72,79.21708333333333
275,2016-06-30,26.551249999999996,54.415416666666665,80.96666666666667
275,2016-07-01,26.53416666666666,58.334583333333335,84.86874999999999
275,2016-07-02,26.322083333333328,43.36833333333333,69.69041666666666
275,2016-07-03,26.357083333333332,43.83208333333334,70.18916666666667
275,2016-07-04,18.7925,55.45583333333334,74.24833333333333
275,2016-07-05,-0.5141666666666665,80.38541666666667,79.87125
275,2016-07-06,11.851249999999999,86.00125000000001,97.8525
275,2016-07-07,23.791666666666668,79.73166666666667,103.52333333333334
275,2016-07-08,24.018749999999997,70.42999999999999,94.44874999999999
275,2016-07-09,24.11333333333333,42.56125,66.67458333333333
275,2016-07-10,24.133749999999996,43.622083333333336,67.75583333333333
275,2016-07-11,24.183333333333326,43.75541666666667,67.93875
275,2016-07-12,24.178333333333338,49.87625,74.05458333333334
275,2016-07-13,24.387083333333333,62.1525,86.53958333333334
275,2016-07-14,24.25958333333334,72.20833333333333,96.46791666666667
275,2016-07-15,24.231250000000003,79.62208333333334,103.85333333333334
275,2016-07-16,24.31833333333334,77.83875,102.15708333333335
275,2016-07-17,24.24458333333334,77.20708333333333,101.45166666666667
275,2016-07-18,24.186250000000005,76.34875,100.535
275,2016-07-19,24.130416666666672,63.32041666666667,87.45083333333334
275,2016-07-20,24.111666666666668,51.91416666666667,76.02583333333334
275,2016-07-21,24.207916666666662,65.20291666666667,89.41083333333333
275,2016-07-22,24.075000000000003,77.69,101.765
275,2016-07-23,24.12125,88.13541666666667,112.25666666666667
275,2016-07-24,24.184583333333332,85.41541666666666,109.6
275,2016-07-25,24.128749999999997,86.67458333333333,110.80333333333333
275,2016-07-26,23.999583333333334,80.42833333333333,104.42791666666666
275,2016-07-27,24.292083333333338,79.84791666666666,104.14
275,2016-07-28,24.20708333333333,85.86958333333332,110.07666666666665
275,2016-07-29,24.025833333333335,78.36583333333333,102.39166666666667
275,2016-07-30,18.26833333333333,79.2825,97.55083333333333
275,2016-07-31,24.31208333333333,70.83749999999999,95.14958333333333
275,2016-08-01,23.65416666666667,59.520833333333336,83.17500000000001
275,2016-08-02,24.29416666666667,51.14958333333333,75.44375
275,2016-08-03,24.082083333333333,47.240833333333335,71.32291666666667
275,2016-08-04,24.108333333333334,52.8375,76.94583333333333
275,2016-08-05,24.147499999999997,58.379999999999995,82.52749999999999
275,2016-08-06,24.141666666666666,71.2175,95.35916666666667
275,2016-08-07,24.081666666666663,73.7775,97.85916666666667
275,2016-08-08,24.19333333333333,69.76166666666667,93.955
275,2016-08-09,24.397916666666664,68.80208333333333,93.19999999999999
275,2016-08-10,23.999166666666667,79.31875000000001,103.31791666666668
275,2016-08-11,18.944166666666668,93.41541666666666,112.35958333333332
275,2016-08-12,25.730833333333333,93.09375,118.82458333333334
275,2016-08-13,46.32874999999999,85.24083333333333,131.56958333333333
275,2016-08-14,45.81333333333333,85.66041666666666,131.47375
275,2016-08-15,47.64125000000001,75.33708333333333,122.97833333333332
275,2016-08-16,46.40416666666666,73.02208333333333,119.42624999999998
275,2016-08-17,47.389166666666675,65.53541666666666,112.92458333333335
275,2016-08-18,49.58083333333335,55.354166666666664,104.93500000000002
275,2016-08-19,47.39958333333334,57.79416666666666,105.19375
275,2016-08-20,48.695,56.96625,105.66125
275,2016-08-21,47.74791666666667,55.61166666666667,103.35958333333335
275,2016-08-22,49.01833333333334,37.51166666666666,86.53
275,2016-08-23,48.15958333333333,27.333333333333332,75.49291666666666
275,2016-08-24,49.875416666666666,38.139583333333334,88.015
275,2016-08-25,48.902499999999996,48.19375,97.09625
275,2016-08-26,37.36125,72.58208333333333,109.94333333333333
275,2016-08-27,33.487083333333324,64.29833333333333,97.78541666666666
275,2016-08-28,34.582499999999996,60.192499999999995,94.77499999999999
275,2016-08-29,35.99583333333334,64.95083333333334,100.94666666666667
275,2016-08-30,46.469166666666666,46.75,93.21916666666667
275,2016-08-31,44.534166666666664,53.333333333333336,97.8675
275,2016-09-01,43.33916666666667,46.13916666666666,89.47833333333332
275,2016-09-02,44.456666666666656,32.1275,76.58416666666665
275,2016-09-03,48.095416666666665,27.315416666666668,75.41083333333333
275,2016-09-04,48.95833333333334,27.433333333333334,76.39166666666668
275,2016-09-05,47.90416666666667,28.518333333333334,76.4225
275,2016-09-06,46.973749999999995,31.52333333333333,78.49708333333332
275,2016-09-07,45.95208333333333,45.5925,91.54458333333332
275,2016-09-08,43.48458333333334,57.977916666666665,101.4625
275,2016-09-09,34.91208333333332,74.80083333333333,109.71291666666664
275,2016-09-10,28.484583333333333,79.02333333333333,107.50791666666666
275,2016-09-11,7.904166666666664,81.25791666666667,89.16208333333334
275,2016-09-12,25.340416666666666,40.66791666666666,66.00833333333333
275,2016-09-13,46.142083333333325,29.99875,76.14083333333332
275,2016-09-14,43.94416666666667,41.3725,85.31666666666666
275,2016-09-15,47.47416666666666,24.325416666666666,71.79958333333333
275,2016-09-16,40.412083333333335,22.984166666666667,63.39625
275,2016-09-17,25.073333333333334,36.275,61.34833333333333
275,2016-09-18,-0.8670833333333334,68.63,67.76291666666665
275,2016-09-19,-0.8687499999999999,67.77208333333333,66.90333333333332
275,2016-09-20,23.277500000000003,47.25125,70.52875
275,2016-09-21,43.60125,33.25666666666667,76.85791666666667
275,2016-09-22,41.48833333333334,31.800833333333333,73.28916666666667
275,2016-09-23,41.05458333333334,35.222500000000004,76.27708333333334
275,2016-09-24,43.95583333333334,26.16416666666667,70.12
275,2016-09-25,37.11541666666666,21.242083333333333,58.357499999999995
275,2016-09-26,33.712916666666665,20.536666666666665,54.249583333333334
275,2016-09-27,36.92875,21.955833333333334,58.88458333333334
275,2016-09-28,31.083333333333332,21.69125,52.77458333333333
275,2016-09-29,13.389166666666666,27.744583333333335,41.13375
275,2016-09-30,15.074583333333331,27.197916666666668,42.2725
275,2016-10-01,27.665833333333335,22.25791666666667,49.923750000000005
275,2016-10-02,32.53666666666667,21.697916666666668,54.23458333333333
275,2016-10-03,31.935833333333324,22.96083333333333,54.896666666666654
275,2016-10-04,31.641249999999996,22.78,54.42125
275,2016-10-05,26.829166666666662,21.764583333333334,48.59375
275,2016-10-06,25.914999999999996,22.110416666666666,48.02541666666666
275,2016-10-07,27.494166666666672,20.855416666666667,48.34958333333334
275,2016-10-08,29.029583333333335,22.91416666666667,51.94375000000001
275,2016-10-09,30.242500000000003,22.850416666666664,53.09291666666667
275,2016-10-10,24.99875,22.464583333333334,47.46333333333334
275,2016-10-11,25.25375,22.135833333333334,47.389583333333334
275,2016-10-12,26.83833333333334,21.46083333333333,48.299166666666665
275,2016-10-13,13.081666666666665,29.339583333333334,42.42125
275,2016-10-14,-1.4304166666666667,36.55375,35.123333333333335